EWG60D EDDL-LSZH

Flight info

Callsign EWG60D
Flight time 0h 50m
Altitude 27000
Route DODEN1T DODEN Y852 TUSUK DCT ULNOK L607 SUNEG T721 RILAX
Aircraft A319/M-SDE3FGHIRWY/LB1

Departure

Time 2026-05-01 10:39
Airport Düsseldorf Airport (EDDL)

Arrival

Time 2026-05-01 11:30
Airport Zürich Airport (LSZH)
Time Latitude Longitude Altitude Speed Heading
2026-05-01 10:13 51.28150 6.76547 131 ft 0 kts 96°
2026-05-01 10:29 51.28151 6.76529 130 ft 4 kts 97°
2026-05-01 10:29 51.28155 6.76487 120 ft 4 kts 108°
2026-05-01 10:30 51.28190 6.76451 128 ft 4 kts 164°
2026-05-01 10:30 51.28221 6.76404 128 ft 3 kts 59°
2026-05-01 10:31 51.28219 6.76399 127 ft 0 kts 53°
2026-05-01 10:33 51.28223 6.76406 128 ft 2 kts 53°
2026-05-01 10:33 51.28264 6.76488 128 ft 8 kts 41°
2026-05-01 10:34 51.28328 6.76481 126 ft 12 kts 352°
2026-05-01 10:34 51.28395 6.76579 125 ft 15 kts 53°
2026-05-01 10:34 51.28459 6.76713 123 ft 16 kts 52°
2026-05-01 10:35 51.28600 6.77009 126 ft 18 kts 52°
2026-05-01 10:35 51.28680 6.77175 127 ft 20 kts 52°
2026-05-01 10:35 51.28769 6.77363 130 ft 22 kts 52°
2026-05-01 10:35 51.28866 6.77567 127 ft 24 kts 53°
2026-05-01 10:36 51.29081 6.78018 131 ft 27 kts 53°
2026-05-01 10:36 51.29192 6.78251 138 ft 26 kts 52°
2026-05-01 10:36 51.29289 6.78454 147 ft 19 kts 52°
2026-05-01 10:37 51.29355 6.78565 152 ft 12 kts 26°
2026-05-01 10:37 51.29515 6.78524 153 ft 13 kts 305°
2026-05-01 10:37 51.29501 6.78430 150 ft 0 kts 231°
2026-05-01 10:38 51.29497 6.78422 150 ft 0 kts 231°
2026-05-01 10:38 51.29447 6.78319 148 ft 37 kts 232°
2026-05-01 10:38 51.29152 6.77708 135 ft 101 kts 232°
2026-05-01 10:39 51.28611 6.76565 134 ft 156 kts 232°
2026-05-01 10:39 51.27949 6.75134 628 ft 161 kts 226°
2026-05-01 10:39 51.27290 6.73683 1296 ft 161 kts 227°
2026-05-01 10:39 51.26603 6.72199 1675 ft 178 kts 227°
2026-05-01 10:40 51.25817 6.70551 2080 ft 194 kts 227°
2026-05-01 10:40 51.24933 6.68741 2434 ft 221 kts 226°
2026-05-01 10:40 51.23956 6.66681 2990 ft 242 kts 227°
2026-05-01 10:40 51.22857 6.64560 3742 ft 250 kts 215°
2026-05-01 10:41 51.21304 6.63446 4602 ft 249 kts 182°
2026-05-01 10:41 51.19574 6.63710 5519 ft 253 kts 170°
2026-05-01 10:41 51.16057 6.64410 7442 ft 258 kts 170°
2026-05-01 10:42 51.14389 6.65510 8142 ft 266 kts 139°
2026-05-01 10:42 51.13326 6.67858 9003 ft 269 kts 112°
2026-05-01 10:42 51.13048 6.70829 9859 ft 277 kts 90°
2026-05-01 10:42 51.13172 6.73908 10675 ft 281 kts 89°
2026-05-01 10:43 51.13329 6.77177 11037 ft 303 kts 88°
2026-05-01 10:43 51.13481 6.80647 11248 ft 326 kts 89°
2026-05-01 10:43 51.13622 6.84310 11541 ft 343 kts 89°
2026-05-01 10:43 51.13762 6.88135 12131 ft 349 kts 89°
2026-05-01 10:44 51.13900 6.92020 12800 ft 353 kts 89°
2026-05-01 10:44 51.14040 6.95945 13399 ft 356 kts 89°
2026-05-01 10:44 51.14183 6.99900 14049 ft 360 kts 89°
2026-05-01 10:44 51.14328 7.03901 14658 ft 363 kts 89°
2026-05-01 10:45 51.14471 7.07930 15254 ft 366 kts 89°
2026-05-01 10:45 51.14595 7.11462 15740 ft 370 kts 88°
2026-05-01 10:45 51.14739 7.15559 16388 ft 372 kts 88°
2026-05-01 10:45 51.14882 7.19680 17032 ft 374 kts 88°
2026-05-01 10:46 51.15024 7.23829 17607 ft 377 kts 88°
2026-05-01 10:46 51.15166 7.28017 18250 ft 379 kts 88°
2026-05-01 10:46 51.15306 7.32232 18826 ft 383 kts 88°
2026-05-01 10:46 51.15406 7.36501 19323 ft 387 kts 92°
2026-05-01 10:47 51.15073 7.40757 19892 ft 388 kts 103°
2026-05-01 10:47 51.14207 7.44844 20373 ft 392 kts 114°
2026-05-01 10:47 51.12823 7.48626 20769 ft 399 kts 126°
2026-05-01 10:47 51.10980 7.51881 21269 ft 403 kts 135°
2026-05-01 10:48 51.08941 7.54968 21715 ft 407 kts 135°
2026-05-01 10:48 51.06879 7.58094 22176 ft 410 kts 135°
2026-05-01 10:48 51.04813 7.61236 22614 ft 414 kts 134°
2026-05-01 10:48 51.02723 7.64415 23058 ft 416 kts 134°
2026-05-01 10:49 51.00624 7.67603 23442 ft 421 kts 135°
2026-05-01 10:49 50.98489 7.70847 23834 ft 424 kts 133°
2026-05-01 10:49 50.96262 7.73926 24168 ft 430 kts 141°
2026-05-01 10:49 50.93748 7.76547 24513 ft 434 kts 146°
2026-05-01 10:50 50.91180 7.79083 24861 ft 437 kts 147°
2026-05-01 10:50 50.88589 7.81628 25223 ft 439 kts 147°
2026-05-01 10:50 50.85982 7.84181 25571 ft 442 kts 147°
2026-05-01 10:50 50.83358 7.86748 25920 ft 444 kts 147°
2026-05-01 10:51 50.80721 7.89332 26267 ft 447 kts 147°
2026-05-01 10:51 50.78075 7.91926 26613 ft 449 kts 147°
2026-05-01 10:51 50.75410 7.94536 26944 ft 452 kts 147°
2026-05-01 10:51 50.72731 7.97151 27280 ft 454 kts 147°
2026-05-01 10:52 50.70037 7.99777 27635 ft 456 kts 147°
2026-05-01 10:52 50.67330 8.02411 27956 ft 458 kts 147°
2026-05-01 10:52 50.64612 8.05056 28264 ft 461 kts 147°
2026-05-01 10:52 50.61764 8.07396 28550 ft 465 kts 156°
2026-05-01 10:53 50.58690 8.09054 28831 ft 469 kts 165°
2026-05-01 10:53 50.55467 8.09973 29070 ft 474 kts 173°
2026-05-01 10:53 50.52167 8.10402 29347 ft 477 kts 174°
2026-05-01 10:53 50.48851 8.10822 29643 ft 479 kts 174°
2026-05-01 10:54 50.45537 8.11247 30078 ft 478 kts 174°
2026-05-01 10:54 50.42234 8.11676 30507 ft 477 kts 174°
2026-05-01 10:54 50.38930 8.12111 30906 ft 475 kts 174°
2026-05-01 10:54 50.35635 8.12545 31238 ft 475 kts 174°
2026-05-01 10:55 50.32379 8.12974 31358 ft 476 kts 174°
2026-05-01 10:55 50.25810 8.13836 31371 ft 472 kts 174°
2026-05-01 10:56 50.19280 8.14682 31372 ft 471 kts 174°
2026-05-01 10:56 50.12891 8.16732 31369 ft 470 kts 158°
2026-05-01 10:57 50.07139 8.21387 31363 ft 466 kts 147°
2026-05-01 10:57 50.01577 8.26549 31372 ft 465 kts 148°
2026-05-01 10:58 49.96008 8.31679 31352 ft 465 kts 148°
2026-05-01 10:58 49.90439 8.36796 31347 ft 465 kts 148°
2026-05-01 10:59 49.84950 8.42072 31347 ft 463 kts 141°
2026-05-01 10:59 49.80186 8.48758 31346 ft 462 kts 135°
2026-05-01 11:00 49.75487 8.55542 31350 ft 462 kts 138°
2026-05-01 11:00 49.69987 8.60684 31353 ft 465 kts 157°
2026-05-01 11:01 49.63718 8.63147 31358 ft 467 kts 169°
2026-05-01 11:01 49.57311 8.64930 31339 ft 467 kts 169°
2026-05-01 11:02 49.50954 8.66697 31339 ft 467 kts 169°
2026-05-01 11:02 49.44652 8.69230 31337 ft 465 kts 156°
2026-05-01 11:03 49.38803 8.73304 31338 ft 465 kts 154°
2026-05-01 11:03 49.32911 8.77408 31334 ft 465 kts 154°
2026-05-01 11:04 49.27012 8.81483 31330 ft 465 kts 154°
2026-05-01 11:04 49.20890 8.84677 31327 ft 467 kts 169°
2026-05-01 11:05 49.14414 8.84899 31323 ft 468 kts 187°
2026-05-01 11:05 49.07995 8.83181 31320 ft 468 kts 190°
2026-05-01 11:06 49.01574 8.81439 31321 ft 469 kts 189°
2026-05-01 11:06 48.95156 8.79700 31319 ft 469 kts 189°
2026-05-01 11:07 48.85522 8.77097 31323 ft 468 kts 189°
2026-05-01 11:07 48.79113 8.75371 31319 ft 468 kts 189°
2026-05-01 11:08 48.72694 8.73649 31315 ft 468 kts 189°
2026-05-01 11:09 48.63082 8.71086 31321 ft 467 kts 189°
2026-05-01 11:09 48.56679 8.69392 31321 ft 467 kts 189°
2026-05-01 11:10 48.47109 8.66851 31320 ft 467 kts 189°
2026-05-01 11:10 48.41746 8.65432 31320 ft 467 kts 189°
2026-05-01 11:11 48.35353 8.63711 31317 ft 467 kts 190°
2026-05-01 11:11 48.28982 8.61794 31313 ft 467 kts 191°
2026-05-01 11:12 48.22628 8.59823 31315 ft 467 kts 191°
2026-05-01 11:12 48.16258 8.57879 31315 ft 467 kts 191°
2026-05-01 11:13 48.09894 8.55981 31313 ft 466 kts 190°
2026-05-01 11:13 48.03516 8.54097 31311 ft 467 kts 190°
2026-05-01 11:14 48.00308 8.53448 31133 ft 464 kts 182°
2026-05-01 11:14 47.97062 8.53549 29900 ft 472 kts 172°
2026-05-01 11:14 47.93821 8.54570 28509 ft 480 kts 161°
2026-05-01 11:14 47.90720 8.56425 27288 ft 482 kts 151°
2026-05-01 11:15 47.87928 8.59076 26093 ft 483 kts 141°
2026-05-01 11:15 47.85327 8.62236 25057 ft 482 kts 139°
2026-05-01 11:15 47.82744 8.65391 24149 ft 478 kts 139°
2026-05-01 11:15 47.80180 8.68508 23200 ft 473 kts 140°
2026-05-01 11:16 47.77646 8.71579 22282 ft 466 kts 140°
2026-05-01 11:16 47.75150 8.74598 21393 ft 459 kts 139°
2026-05-01 11:16 47.72687 8.77573 20560 ft 452 kts 139°
2026-05-01 11:16 47.70267 8.80498 19755 ft 446 kts 140°
2026-05-01 11:17 47.67879 8.83377 18956 ft 440 kts 140°
2026-05-01 11:17 47.65515 8.86220 18084 ft 434 kts 140°
2026-05-01 11:17 47.63253 8.89132 17188 ft 427 kts 133°
2026-05-01 11:17 47.61402 8.92517 16326 ft 420 kts 122°
2026-05-01 11:18 47.59999 8.96265 15654 ft 410 kts 117°
2026-05-01 11:18 47.58343 8.99560 15509 ft 393 kts 137°
2026-05-01 11:18 47.56028 9.01511 15383 ft 379 kts 161°
2026-05-01 11:18 47.53465 9.01811 15262 ft 366 kts 187°
2026-05-01 11:19 47.51149 9.00466 15134 ft 356 kts 214°
2026-05-01 11:19 47.49540 8.97801 15021 ft 345 kts 242°
2026-05-01 11:19 47.48966 8.94453 14887 ft 334 kts 271°
2026-05-01 11:19 47.49494 8.91181 14605 ft 326 kts 297°
2026-05-01 11:20 47.50539 8.88213 14226 ft 326 kts 299°
2026-05-01 11:20 47.51595 8.85257 13828 ft 325 kts 299°
2026-05-01 11:20 47.52651 8.82310 13434 ft 323 kts 299°
2026-05-01 11:20 47.53701 8.79383 13057 ft 321 kts 298°
2026-05-01 11:21 47.54744 8.76474 12702 ft 319 kts 298°
2026-05-01 11:21 47.55781 8.73586 12342 ft 317 kts 298°
2026-05-01 11:21 47.56814 8.70711 11998 ft 315 kts 298°
2026-05-01 11:21 47.57839 8.67854 11637 ft 313 kts 298°
2026-05-01 11:22 47.58857 8.65017 11301 ft 311 kts 298°
2026-05-01 11:22 47.59870 8.62195 10953 ft 309 kts 298°
2026-05-01 11:22 47.60847 8.59418 10588 ft 306 kts 294°
2026-05-01 11:22 47.61297 8.56379 10128 ft 303 kts 270°
2026-05-01 11:23 47.61389 8.53271 9647 ft 301 kts 274°
2026-05-01 11:23 47.61629 8.50202 9173 ft 298 kts 277°
2026-05-01 11:23 47.62105 8.47225 8741 ft 296 kts 291°
2026-05-01 11:23 47.63098 8.44570 8186 ft 295 kts 307°
2026-05-01 11:24 47.64560 8.42395 7400 ft 303 kts 321°
2026-05-01 11:24 47.66042 8.40153 6604 ft 309 kts 301°
2026-05-01 11:24 47.66128 8.34030 4966 ft 314 kts 239°
2026-05-01 11:25 47.64598 8.31871 4632 ft 300 kts 206°
2026-05-01 11:25 47.60864 8.32332 4244 ft 269 kts 139°
2026-05-01 11:25 47.59883 8.34557 4117 ft 254 kts 108°
2026-05-01 11:26 47.59368 8.36995 4000 ft 242 kts 107°
2026-05-01 11:26 47.57587 8.40764 3886 ft 216 kts 136°
2026-05-01 11:26 47.56510 8.42245 3652 ft 207 kts 137°
2026-05-01 11:27 47.55461 8.43677 3391 ft 204 kts 136°
2026-05-01 11:27 47.54436 8.45079 3114 ft 196 kts 136°
2026-05-01 11:27 47.53463 8.46411 2884 ft 183 kts 135°
2026-05-01 11:27 47.52554 8.47656 2618 ft 174 kts 135°
2026-05-01 11:28 47.51700 8.48826 2385 ft 162 kts 135°
2026-05-01 11:28 47.50903 8.49916 2173 ft 152 kts 134°
2026-05-01 11:28 47.50164 8.50929 1981 ft 142 kts 134°
2026-05-01 11:29 47.48767 8.52855 1610 ft 136 kts 133°
2026-05-01 11:29 47.48066 8.53810 1421 ft 134 kts 135°
2026-05-01 11:29 47.47173 8.55029 1403 ft 64 kts 137°
2026-05-01 11:30 47.46856 8.55457 1408 ft 44 kts 137°
2026-05-01 11:30 47.46631 8.55667 1407 ft 38 kts 163°
2026-05-01 11:30 47.46431 8.55734 1398 ft 28 kts 167°
2026-05-01 11:30 47.46314 8.55851 1398 ft 18 kts 137°
2026-05-01 11:31 47.46216 8.55987 1398 ft 20 kts 136°
2026-05-01 11:31 47.46107 8.56134 1398 ft 22 kts 137°
2026-05-01 11:31 47.45991 8.56293 1398 ft 18 kts 137°
2026-05-01 11:31 47.45872 8.56305 1398 ft 18 kts 185°
2026-05-01 11:32 47.45746 8.56284 1403 ft 17 kts 186°
2026-05-01 11:32 47.45621 8.56268 1401 ft 18 kts 185°
2026-05-01 11:32 47.45588 8.56264 1400 ft 4 kts 187°
2026-05-01 11:32 47.45548 8.56253 1401 ft 9 kts 190°
2026-05-01 11:33 47.45477 8.56206 1401 ft 13 kts 245°
2026-05-01 11:33 47.45487 8.56066 1397 ft 15 kts 278°
2026-05-01 11:33 47.45487 8.55959 1401 ft 4 kts 219°
2026-05-01 11:33 47.45455 8.55954 1397 ft 5 kts 189°
2026-05-01 11:34 47.45419 8.55949 1397 ft 3 kts 186°
2026-05-01 11:34 47.45410 8.55947 1397 ft 0 kts 186°